North Las Vegas, NV

10:36 PM PDT on September 19, 2018 (GMT -0700)
North Las Vegas

Weather History for KVGT - July, 2018

Change the Weather History Date:

Thursday, July 12, 2018

  Actual Average Record
Temperature  
Mean Temperature 89 °F 91 °F  
Max Temperature 95 °F 104 °F 115 °F (2003)
Min Temperature 82 °F 79 °F 74 °F (2016)
Degree Days  
Heating Degree Days 0 0  
Month to date heating degree days 0 0  
Since 1 July heating degree days 0 0  
Cooling Degree Days 24 26  
Month to date cooling degree days 331 306  
Year to date cooling degree days 1701 1387  
Growing Degree Days 38 (Base 50)    
Moisture  
Dew Point 63 °F    
Average Humidity 45    
Maximum Humidity 55    
Minimum Humidity 34    
Precipitation  
Precipitation 0.00 in 0.01 in 0.00 in (2018)
Month to date precipitation T 0.07  
Year to date precipitation 1.82 2.75  
Sea Level Pressure  
Sea Level Pressure 29.94 in    
Wind  
Wind Speed 9 mph (ESE)    
Max Wind Speed 22 mph    
Max Gust Speed 27 mph    
Visibility 10 miles    
Events Thunderstorm    
T = Trace of Precipitation, MM = Missing Value Source: NWS Daily Summary

Daily Weather History Graph

Daily Weather History Graph

Search for Another Location

Airport or City:

Astronomy

Jul. 12, 2018 Rise Set
Actual Time 5:33 AM PDT 7:59 PM PDT
Civil Twilight 5:03 AM PDT 8:29 PM PDT
Nautical Twilight 4:26 AM PDT 9:05 PM PDT
Astronomical Twilight 3:46 AM PDT 9:46 PM PDT
Moon 5:04 AM PDT (7/12) 7:47 PM PDT (7/12)
Length of Visible Light 15h 25m
Length of Day
14h 26m
Waning Crescent, 0% of the Moon is Illuminated
Jul 12
Waning Crescent
Jul 12
New
Jul 19
First Quarter
Jul 27
Full
Aug 4
Last Quarter

Hourly Weather History & Observations

Time (PDT) Temp. Heat Index Dew Point Humidity Pressure Visibility Wind Dir Wind Speed Gust Speed Precip Events Conditions
12:02 AM 86.0 °F 87.3 °F 64.0 °F 48% 29.90 in 10.0 mi SE 10.4 mph - N/A Thunderstorm Clear
12:39 AM 84.9 °F 86.6 °F 64.9 °F 51% 29.91 in 10.0 mi ESE 6.9 mph - N/A   Clear
12:53 AM 84.9 °F 86.6 °F 64.9 °F 51% 29.87 in 10.0 mi East 6.9 mph - N/A   Clear
1:53 AM 84.0 °F 85.4 °F 64.0 °F 51% 29.88 in 10.0 mi ESE 10.4 mph - N/A   Clear
2:53 AM 82.9 °F 84.0 °F 63.0 °F 51% 29.89 in 10.0 mi ESE 12.7 mph - N/A   Clear
3:53 AM 82.9 °F 84.4 °F 64.0 °F 53% 29.90 in 10.0 mi SE 9.2 mph - N/A   Clear
4:53 AM 82.0 °F 83.4 °F 64.0 °F 54% 29.91 in 10.0 mi ESE 6.9 mph - N/A   Clear
5:53 AM 82.0 °F 83.4 °F 64.0 °F 54% 29.93 in 10.0 mi East 8.1 mph - N/A   Clear
6:53 AM 82.9 °F 84.4 °F 64.0 °F 53% 29.95 in 10.0 mi ESE 5.8 mph - N/A   Clear
7:53 AM 84.9 °F 86.1 °F 64.0 °F 49% 29.96 in 10.0 mi SE 5.8 mph - N/A   Clear
8:53 AM 86.0 °F 87.3 °F 64.0 °F 48% 29.98 in 10.0 mi ESE 10.4 mph - N/A   Clear
9:53 AM 88.0 °F 89.3 °F 64.0 °F 45% 29.98 in 10.0 mi ESE 8.1 mph - N/A   Clear
10:53 AM 90.0 °F 90.6 °F 63.0 °F 40% 29.96 in 10.0 mi North - - N/A   Clear
11:53 AM 93.9 °F 95.2 °F 63.0 °F 36% 29.94 in 10.0 mi North - - N/A   Clear
12:53 PM 93.9 °F 94.8 °F 62.1 °F 35% 29.92 in 10.0 mi SSE 19.6 mph 26.5 mph N/A   Scattered Clouds
1:53 PM 91.0 °F 90.5 °F 60.1 °F 35% 29.95 in 10.0 mi WSW 13.8 mph 23.0 mph N/A   Mostly Cloudy
2:02 PM 90.0 °F 90.0 °F 61.0 °F 38% 29.98 in 10.0 mi WNW 15.0 mph - N/A   Mostly Cloudy
2:12 PM 89.1 °F 89.0 °F 61.0 °F 39% 29.98 in 10.0 mi West 11.5 mph - N/A   Scattered Clouds
2:53 PM 90.0 °F 90.0 °F 61.0 °F 38% 29.94 in 10.0 mi SSW 6.9 mph - N/A   Clear
3:53 PM 90.0 °F 88.8 °F 57.9 °F 34% 29.92 in 10.0 mi South 10.4 mph - N/A   Clear
4:53 PM 91.9 °F 91.5 °F 60.1 °F 34% 29.92 in 10.0 mi South 8.1 mph 17.3 mph N/A   Clear
5:53 PM 91.9 °F 92.9 °F 63.0 °F 38% 29.91 in 10.0 mi ESE 8.1 mph - N/A   Clear
6:53 PM 91.0 °F 92.6 °F 64.0 °F 41% 29.91 in 10.0 mi ESE 11.5 mph - N/A   Clear
7:53 PM 89.1 °F 89.3 °F 62.1 °F 40% 29.95 in 10.0 mi ESE 12.7 mph - N/A   Clear
8:53 PM 87.1 °F 87.8 °F 63.0 °F 44% 29.96 in 10.0 mi ESE 11.5 mph - N/A   Clear
9:53 PM 87.1 °F 88.3 °F 64.0 °F 46% 29.99 in 10.0 mi ENE 5.8 mph - N/A   Clear
10:53 PM 84.9 °F 85.9 °F 63.0 °F 48% 30.00 in 10.0 mi NNE 4.6 mph - N/A   Clear
11:53 PM 84.0 °F 85.4 °F 64.0 °F 51% 29.99 in 10.0 mi East 3.5 mph - N/A   Partly Cloudy